(118464) = 1999 XE61

Discovered at Socorro on 1999-12-07 by LINEAR.

Orbit

Orbit type: Main Belt

Note: WebGL enabled browser required.

epoch2024-03-31.0
epoch JD2460400.5
perihelion date2021-10-12.75096
perihelion JD2459500.25096
argument of perihelion (°)316.02170
ascending node (°)92.09836
inclination (°)6.32962
eccentricity0.1642688
perihelion distance (AU)2.6164873
Tisserand w.r.t. Jupiter3.2
ΔV w.r.t. Earth (km/sec)10.3
semimajor axis (AU)3.1307762
mean anomaly (°)160.17269
mean daily motion (°/day)0.17792040
aphelion distance (AU)3.645
period (years)5.54
P-vector [x]0.66334194
P-vector [y]0.71341642
P-vector [z]0.22586387
Q-vector [x]-0.74016156
Q-vector [y]0.58107513
Q-vector [z]0.33839705
absolute magnitude14.79
phase slope0.15
uncertainty0
referenceMPEC 2024-F07
observations used968
oppositions18
arc length (days)8899
first opposition used1999
last opposition used2024
residual rms (arc-secs)0.70
perturbers coarse indicatorM-v
perturbers precise indicator003Ek
first observation date used1999-11-04.0
last observation date used2024-03-16.0
computer nameMPCLINUX
JD of orbit computation2456465.523214
perihelion JD uncertainty (days)1.2791E-04
argument of perihelion uncertainty (°)5.6179E-05
ascending node uncertainty (°)5.0754E-05
inclination uncertainty (°)6.6218E-06
eccentricity uncertainty 7.5774E-08
perihelion distance uncertainty (AU)2.3542E-07
Minimum Orbit Intersection Distances (in AU)
for orbit epoch: 2460400.5, reference: E2024-G51
Mercury2.30002
Venus1.89487
Earth1.63169
Mars1.12527
Jupiter1.74214
Saturn6.10532
Uranus15.0192
Neptune26.9726

Observations

990 total observations over interval: 1999 11 04.40289 – 2024 03 16.575025
These data are available for download (format description).

Date (UT) J2000 RA J2000 Dec Magn Location Ref
1999 11 04.40289 04 56 59.37 +17 47 55.3 18.8   704 – Lincoln Laboratory ETS, New Mexico MPS 8933
1999 11 04.41911 04 56 58.83 +17 47 55.8 18.9   704 – Lincoln Laboratory ETS, New Mexico MPS 8933
1999 11 04.43571 04 56 58.33 +17 47 56.4 19.1   704 – Lincoln Laboratory ETS, New Mexico MPS 8933
1999 11 04.45184 04 56 57.86 +17 47 56.5 18.8   704 – Lincoln Laboratory ETS, New Mexico MPS 8933
1999 11 04.46835 04 56 57.30 +17 47 56.2 19.1   704 – Lincoln Laboratory ETS, New Mexico MPS 8933
1999 11 15.36742 04 50 06.16 +17 52 09.1 18.3   704 – Lincoln Laboratory ETS, New Mexico MPS 8933
1999 11 15.38173 04 50 05.48 +17 52 09.3 18.1   704 – Lincoln Laboratory ETS, New Mexico MPS 8933
1999 11 15.39606 04 50 04.82 +17 52 09.8 18.4   704 – Lincoln Laboratory ETS, New Mexico MPS 8933
1999 11 15.41046 04 50 04.14 +17 52 10.4 18.4   704 – Lincoln Laboratory ETS, New Mexico MPS 8933
1999 11 15.42477 04 50 03.48 +17 52 11.0 18.4   704 – Lincoln Laboratory ETS, New Mexico MPS 8933
1999 11 17.28409 04 48 38.43 +17 53 00.0 18.4   704 – Lincoln Laboratory ETS, New Mexico MPS 8933
1999 11 17.29957 04 48 37.66 +17 53 00.6 18.6   704 – Lincoln Laboratory ETS, New Mexico MPS 8933
1999 11 17.31491 04 48 36.87 +17 53 00.4 18.5   704 – Lincoln Laboratory ETS, New Mexico MPS 8933
1999 11 17.33021 04 48 36.21 +17 53 01.2 18.6   704 – Lincoln Laboratory ETS, New Mexico MPS 8933
1999 11 17.34557 04 48 35.41 +17 53 01.0 18.9   704 – Lincoln Laboratory ETS, New Mexico MPS 8933
1999 12 07.22909 04 31 07.86 +18 05 23.2 18.0   704 – Lincoln Laboratory ETS, New Mexico MPS 8010
1999 12 07.24364 04 31 07.04 +18 05 24.0 18.5   704 – Lincoln Laboratory ETS, New Mexico MPS 8010
1999 12 07.25822 04 31 06.24 +18 05 24.8 18.4   704 – Lincoln Laboratory ETS, New Mexico MPS 8010
1999 12 07.27278 04 31 05.40 +18 05 25.1 18.3   704 – Lincoln Laboratory ETS, New Mexico MPS 8010
1999 12 07.28729 04 31 04.63 +18 05 25.8 18.2   704 – Lincoln Laboratory ETS, New Mexico MPS 8010
1999 12 08.31743 04 30 09.22 +18 06 19.3 17.9   704 – Lincoln Laboratory ETS, New Mexico MPS 8010
1999 12 08.32991 04 30 08.51 +18 06 19.6 18.3   704 – Lincoln Laboratory ETS, New Mexico MPS 8010
1999 12 08.35484 04 30 07.16 +18 06 21.3 18.3   704 – Lincoln Laboratory ETS, New Mexico MPS 8010
1999 12 08.36728 04 30 06.46 +18 06 21.8 18.3   704 – Lincoln Laboratory ETS, New Mexico MPS 8010
1999 12 31.17594 04 13 47.08 +18 37 28.7 18.4 R 703 – Catalina Sky Survey MPS 8933
1999 12 31.18820 04 13 46.57 +18 37 30.0 18.8 R 703 – Catalina Sky Survey MPS 8933
1999 12 31.20046 04 13 46.25 +18 37 31.4 18.3 R 703 – Catalina Sky Survey MPS 8933
1999 12 31.21272 04 13 45.92 +18 37 31.7 18.5 R 703 – Catalina Sky Survey MPS 8933
2000 01 05.15219 04 11 46.35 +18 47 42.6 19.0   704 – Lincoln Laboratory ETS, New Mexico MPS 8933
2000 01 05.16674 04 11 46.00 +18 47 44.8 19.6   704 – Lincoln Laboratory ETS, New Mexico MPS 8933
2000 01 05.18136 04 11 45.68 +18 47 47.5 19.3   704 – Lincoln Laboratory ETS, New Mexico MPS 8933
2000 01 05.19587 04 11 45.36 +18 47 49.3 19.4   704 – Lincoln Laboratory ETS, New Mexico MPS 8933
2000 01 05.21038 04 11 45.04 +18 47 51.2 19.1   704 – Lincoln Laboratory ETS, New Mexico MPS 8933
2000 01 06.15006 04 11 27.05 +18 49 55.0 19.4   704 – Lincoln Laboratory ETS, New Mexico MPS 8933
2000 01 06.16474 04 11 26.77 +18 49 58.3 19.4   704 – Lincoln Laboratory ETS, New Mexico MPS 8933
2000 01 06.17933 04 11 26.47 +18 50 00.1 19.6   704 – Lincoln Laboratory ETS, New Mexico MPS 8933
2000 01 06.19391 04 11 26.13 +18 50 02.1 19.6   704 – Lincoln Laboratory ETS, New Mexico MPS 8933
2000 02 03.08892 04 13 51.13 +20 13 01.7 18.6   704 – Lincoln Laboratory ETS, New Mexico MPS 10031
2000 02 03.10316 04 13 51.51 +20 13 04.5 19.2   704 – Lincoln Laboratory ETS, New Mexico MPS 10031
2000 02 03.11742 04 13 51.78 +20 13 07.3 19.8   704 – Lincoln Laboratory ETS, New Mexico MPS 10031
2000 02 03.14597 04 13 52.66 +20 13 13.9 19.7   704 – Lincoln Laboratory ETS, New Mexico MPS 10031
2001 02 17.31146 11 25 16.17 +12 50 57.8 19.4   704 – Lincoln Laboratory ETS, New Mexico MPS 112071
2001 02 17.32559 11 25 15.51 +12 51 02.2 19.6   704 – Lincoln Laboratory ETS, New Mexico MPS 112071
2001 02 17.35383 11 25 14.23 +12 51 12.5 19.6   704 – Lincoln Laboratory ETS, New Mexico MPS 112071
2004 07 17.40085 00 48 11.06 -02 49 35.5 19.6   704 – Lincoln Laboratory ETS, New Mexico MPS 111763
2004 07 17.42157 00 48 11.86 -02 49 34.5 19.5   704 – Lincoln Laboratory ETS, New Mexico MPS 111763
2004 07 17.43181 00 48 12.24 -02 49 34.2 19.5   704 – Lincoln Laboratory ETS, New Mexico MPS 111763
2004 08 15.63641 00 58 38.72 -03 16 43.7 18.8 R E12 – Siding Spring Survey MPS 111763
2004 08 15.65179 00 58 38.80 -03 16 46.2 18.4 R E12 – Siding Spring Survey MPS 111763
2004 08 15.66719 00 58 38.80 -03 16 48.2 18.5 R E12 – Siding Spring Survey MPS 111763
2004 08 15.68258 00 58 38.79 -03 16 51.6 18.6 R E12 – Siding Spring Survey MPS 111763
2004 08 27.39893 00 57 31.84 -03 59 31.8 18.2 R 699 – Lowell Observatory-LONEOS MPS 112071
2004 08 27.41188 00 57 31.66 -03 59 34.6   699 – Lowell Observatory-LONEOS MPS 112071
2004 08 27.42483 00 57 31.46 -03 59 38.0   699 – Lowell Observatory-LONEOS MPS 112071
2004 08 27.43778 00 57 31.29 -03 59 41.5   699 – Lowell Observatory-LONEOS MPS 112071
2004 09 08.23679 00 53 13.46 -04 56 17.4 18.6   704 – Lincoln Laboratory ETS, New Mexico MPS 112530
2004 09 08.24827 00 53 13.07 -04 56 19.8 18.7   704 – Lincoln Laboratory ETS, New Mexico MPS 112530
2004 09 08.25974 00 53 12.74 -04 56 24.6 18.9   704 – Lincoln Laboratory ETS, New Mexico MPS 112530
2004 09 08.27117 00 53 12.37 -04 56 28.5 19.0   704 – Lincoln Laboratory ETS, New Mexico MPS 112530
2004 09 08.28270 00 53 12.02 -04 56 31.7 18.8   704 – Lincoln Laboratory ETS, New Mexico MPS 112530
2004 09 14.34089 00 49 52.65 -05 28 40.8 18.0 R 699 – Lowell Observatory-LONEOS MPS 120328
2004 09 14.35711 00 49 52.08 -05 28 46.2   699 – Lowell Observatory-LONEOS MPS 120328
2004 09 14.37335 00 49 51.46 -05 28 52.3   699 – Lowell Observatory-LONEOS MPS 120328
2004 09 14.38960 00 49 50.82 -05 28 57.1   699 – Lowell Observatory-LONEOS MPS 120328
2004 10 15.41483 00 27 29.87 -07 46 41.7 19.2   608 – Haleakala-AMOS MPS 117448
2004 10 15.42513 00 27 29.43 -07 46 43.1 19.2   608 – Haleakala-AMOS MPS 117448
2004 10 15.43594 00 27 28.96 -07 46 44.8 19.4   608 – Haleakala-AMOS MPS 117448
2004 10 20.17813 00 24 21.89 -07 56 41.2 18.0 R 703 – Catalina Sky Survey MPS 117448
2004 10 20.19162 00 24 21.34 -07 56 42.8 18.0 R 703 – Catalina Sky Survey MPS 117448
2004 10 20.20509 00 24 20.81 -07 56 43.9 18.0 R 703 – Catalina Sky Survey MPS 117448
2004 10 20.21858 00 24 20.28 -07 56 45.4 17.7 R 703 – Catalina Sky Survey MPS 117448
2004 11 11.15536 00 15 25.15 -07 46 23.1 19.0 R 699 – Lowell Observatory-LONEOS MPS 119774
2004 11 11.17564 00 15 24.96 -07 46 19.9   699 – Lowell Observatory-LONEOS MPS 119774
2004 11 11.19594 00 15 24.69 -07 46 16.4   699 – Lowell Observatory-LONEOS MPS 119774
2004 11 11.21622 00 15 24.43 -07 46 13.9   699 – Lowell Observatory-LONEOS MPS 119774
2005 01 13.10773 00 49 13.60 -00 36 56.7 18.9 R 703 – Catalina Sky Survey MPS 123961
2005 01 13.11670 00 49 14.11 -00 36 53.2 18.9 R 703 – Catalina Sky Survey MPS 123961
2005 01 13.12558 00 49 14.66 -00 36 47.8 19.2 R 703 – Catalina Sky Survey MPS 123961
2005 01 13.13451 00 49 15.24 -00 36 42.3 19.5 R 703 – Catalina Sky Survey MPS 123961
2005 02 04.08869 01 15 57.50 +03 03 39.2 18.8 R 703 – Catalina Sky Survey MPS 125548
2005 02 04.09616 01 15 58.08 +03 03 43.9 19.2 R 703 – Catalina Sky Survey MPS 125548
2005 02 04.10362 01 15 58.71 +03 03 49.0 18.9 R 703 – Catalina Sky Survey MPS 125548
2005 02 04.11111 01 15 59.21 +03 03 53.7 19.1 R 703 – Catalina Sky Survey MPS 125548
2005 10 01.48181 08 04 52.18 +21 01 12.6 20.1 V 691 – Steward Observatory, Kitt Peak-Spacewatch MPS 143307
2005 10 01.49431 08 04 53.16 +21 01 10.9 20.1 V 691 – Steward Observatory, Kitt Peak-Spacewatch MPS 143307
2005 10 01.50685 08 04 54.11 +21 01 09.3 20.2 V 691 – Steward Observatory, Kitt Peak-Spacewatch MPS 143307
2005 10 13.48929 08 19 37.53 +20 35 49.4 20.3 V 691 – Steward Observatory, Kitt Peak-Spacewatch MPS 143307
